Location: Bruchhof
(51.8738°N, 9.9256°E)
Time: 09:56:03
(UTC+00:00)

USA 238 DEB - Pass Details

Date: 15 June 2024
Orbit: 921 x 1290 km, 63.4° (Epoch: 19 July)

Event Time Altitude Azimuth Distance (km) Brightness Sun altitude
Exits shadow 02:06:06 - 208° (SSW) 2,909 5.3 -6.6°
Reaches altitude 10° 02:06:43 10° 207° (SSW) 2,685 5.2 -6.5°
Maximum altitude 02:12:55 64° 127° (SE) 1,110 3.9 -5.9°
Drops below altitude 10° 02:19:40 10° 48° (NE) 2,923 7.8 -5.3°
Sets 02:22:28 0° 46° (NE) 3,939 9.5 -5.0°
